| time (UTC) | temp C | wind direction | speed KPH | gust KPH | rain 1hr cm | rain 24hr cm | rain mn cm | humidity % | barometer mb |
| 20260510152910 | 22 | 249 | 9.7 | 11.3 | 0.00 | 0.00 | 0.00 | 78 | 1014.2 |
| 20260510152409 | 22 | 249 | 9.7 | 11.3 | 0.00 | 0.00 | 0.00 | 78 | 1014.2 |
| 20260510151909 | 22 | 249 | 9.7 | 11.3 | 0.00 | 0.00 | 0.00 | 78 | 1014.6 |
| 20260510150909 | 22 | 273 | 6.4 | 9.7 | 0.00 | 0.00 | 0.00 | 75 | 1014.2 |
| 20260510150410 | 22 | 273 | 6.4 | 9.7 | 0.00 | 0.00 | 0.00 | 75 | 1013.9 |
| 20260510145909 | 23 | 268 | 8.0 | 9.7 | 0.00 | 0.00 | 0.00 | 74 | 1013.9 |
| 20260510145409 | 23 | 148 | 3.2 | 8.0 | 0.00 | 0.00 | 0.00 | 72 | 1014.2 |
| 20260510144909 | 23 | 148 | 3.2 | 8.0 | 0.00 | 0.00 | 0.00 | 72 | 1013.9 |
| 20260510144409 | 22 | 65 | 3.2 | 8.0 | 0.00 | 0.00 | 0.00 | 75 | 1013.9 |
| 20260510143409 | 22 | 148 | 6.4 | 8.0 | 0.00 | 0.00 | 0.00 | 73 | 1013.9 |
| 20260510142909 | 22 | 148 | 6.4 | 8.0 | 0.00 | 0.00 | 0.00 | 73 | 1013.9 |
| 20260510142409 | 22 | 242 | 0.0 | 6.4 | 0.00 | 0.00 | 0.00 | 73 | 1013.9 |
| 20260510141909 | 22 | 164 | 4.8 | 4.8 | 0.00 | 0.00 | 0.00 | 75 | 1013.9 |
| 20260510141409 | 22 | 164 | 4.8 | 4.8 | 0.00 | 0.00 | 0.00 | 75 | 1013.9 |
| 20260510135909 | 21 | 115 | 4.8 | 4.8 | 0.00 | 0.00 | 0.00 | 77 | 1013.9 |
| 20260510135409 | 21 | 115 | 4.8 | 6.4 | 0.00 | 0.00 | 0.00 | 77 | 1013.9 |
| 20260510134909 | 21 | 115 | 4.8 | 6.4 | 0.00 | 0.00 | 0.00 | 77 | 1014.2 |
| 20260510134409 | 21 | 186 | 3.2 | 6.4 | 0.00 | 0.00 | 0.00 | 75 | 1014.2 |
| 20260510133909 | 21 | 83 | 1.6 | 6.4 | 0.00 | 0.00 | 0.00 | 78 | 1013.9 |
| 20260510133410 | 20 | 130 | 4.8 | 6.4 | 0.00 | 0.00 | 0.00 | 79 | 1013.9 |
| 20260510132909 | 21 | 144 | 4.8 | 6.4 | 0.00 | 0.00 | 0.00 | 78 | 1013.9 |
| 20260510132409 | 21 | 149 | 4.8 | 6.4 | 0.00 | 0.00 | 0.00 | 79 | 1013.9 |
| 20260510131909 | 19 | 96 | 1.6 | 6.4 | 0.00 | 0.00 | 0.00 | 83 | 1014.2 |
| 20260510131409 | 19 | 96 | 1.6 | 6.4 | 0.00 | 0.00 | 0.00 | 83 | 1013.9 |
| 20260510130909 | 19 | 87 | 6.4 | 6.4 | 0.00 | 0.00 | 0.00 | 84 | 1014.2 |
| 20260510130410 | 18 | 135 | 4.8 | 4.8 | 0.00 | 0.00 | 0.00 | 88 | 1013.9 |
| 20260510125909 | 18 | 135 | 4.8 | 4.8 | 0.00 | 0.00 | 0.00 | 88 | 1014.2 |
| 20260510125409 | 18 | 135 | 4.8 | 4.8 | 0.00 | 0.00 | 0.00 | 88 | 1013.9 |
| 20260510124409 | 17 | 82 | 4.8 | 6.4 | 0.00 | 0.00 | 0.00 | 96 | 1013.9 |
| 20260510123909 | 17 | 82 | 4.8 | 6.4 | 0.00 | 0.00 | 0.00 | 96 | 1014.2 |
| 20260510123409 | 16 | 82 | 4.8 | 6.4 | 0.00 | 0.00 | 0.00 | 98 | 1013.9 |
| 20260510121910 | 16 | 155 | 8.0 | 9.7 | 0.00 | 0.00 | 0.00 | 97 | 1013.9 |
| 20260510121409 | 16 | 155 | 8.0 | 9.7 | 0.00 | 0.00 | 0.00 | 97 | 1013.9 |
| 20260510120909 | 15 | 111 | 4.8 | 8.0 | 0.00 | 0.00 | 0.00 | 97 | 1013.5 |
| 20260510120409 | 15 | 111 | 4.8 | 8.0 | 0.00 | 0.00 | 0.00 | 97 | 1013.5 |
| 20260510115909 | 15 | 113 | 6.4 | 8.0 | 0.00 | 0.00 | 0.00 | 97 | 1013.5 |
| 20260510115409 | 15 | 113 | 6.4 | 9.7 | 0.00 | 0.00 | 0.00 | 97 | 1013.2 |
| 20260510114910 | 15 | 113 | 6.4 | 9.7 | 0.00 | 0.00 | 0.00 | 97 | 1013.2 |
| 20260510113409 | 15 | 152 | 3.2 | 6.4 | 0.00 | 0.00 | 0.00 | 97 | 1013.5 |
| 20260510112909 | 15 | 152 | 3.2 | 6.4 | 0.00 | 0.00 | 0.00 | 97 | 1012.8 |
| 20260510105909 | 15 | 113 | 6.4 | 9.7 | 0.00 | 0.00 | 0.00 | 97 | 1012.5 |
| 20260510105409 | 15 | 113 | 6.4 | 9.7 | 0.00 | 0.00 | 0.00 | 97 | 1012.5 |
| 20260510104909 | 15 | 113 | 6.4 | 9.7 | 0.00 | 0.00 | 0.00 | 97 | 1012.5 |
| 20260510103409 | 16 | 69 | 6.4 | 9.7 | 0.00 | 0.00 | 0.00 | 97 | 1012.1 |
| 20260510102909 | 16 | 69 | 6.4 | 9.7 | 0.00 | 0.00 | 0.00 | 97 | 1012.1 |
| 20260510100409 | 16 | 76 | 4.8 | 4.8 | 0.00 | 0.00 | 0.00 | 96 | 1011.8 |
| 20260510095909 | 16 | 76 | 4.8 | 4.8 | 0.00 | 0.00 | 0.00 | 96 | 1011.8 |
| 20260510095409 | 16 | 76 | 4.8 | 4.8 | 0.00 | 0.00 | 0.00 | 96 | 1011.8 |
| 20260510094909 | 16 | 86 | 4.8 | 6.4 | 0.00 | 0.00 | 0.00 | 96 | 1011.8 |
| 20260510094409 | 16 | 86 | 4.8 | 6.4 | 0.00 | 0.00 | 0.00 | 96 | 1011.5 |
| 20260510093909 | 16 | 49 | 6.4 | 8.0 | 0.00 | 0.00 | 0.00 | 96 | 1011.8 |
| 20260510093409 | 16 | 48 | 4.8 | 8.0 | 0.00 | 0.00 | 0.00 | 96 | 1011.8 |
| 20260510092909 | 16 | 25 | 8.0 | 8.0 | 0.00 | 0.00 | 0.00 | 95 | 1011.8 |
| 20260510092409 | 16 | 6 | 6.4 | 8.0 | 0.00 | 0.00 | 0.00 | 95 | 1011.8 |
| 20260510091910 | 16 | 352 | 4.8 | 6.4 | 0.00 | 0.00 | 0.00 | 94 | 1011.5 |
| 20260510091409 | 16 | 352 | 4.8 | 6.4 | 0.00 | 0.00 | 0.00 | 94 | 1011.5 |
| 20260510085909 | 17 | 29 | 0.0 | 4.8 | 0.00 | 0.00 | 0.00 | 89 | 1011.5 |
| 20260510085409 | 17 | 29 | 0.0 | 4.8 | 0.00 | 0.00 | 0.00 | 89 | 1011.5 |
| 20260510084409 | 17 | 243 | 1.6 | 3.2 | 0.00 | 0.00 | 0.00 | 91 | 1011.5 |
| 20260510083909 | 17 | 243 | 1.6 | 4.8 | 0.00 | 0.00 | 0.00 | 91 | 1011.5 |
| 20260510083409 | 17 | 243 | 1.6 | 4.8 | 0.00 | 0.00 | 0.00 | 91 | 1011.5 |
| 20260510082909 | 17 | 245 | 3.2 | 4.8 | 0.00 | 0.00 | 0.00 | 91 | 1011.5 |
| 20260510082409 | 17 | 264 | 1.6 | 4.8 | 0.00 | 0.00 | 0.00 | 90 | 1011.5 |
| 20260510081909 | 17 | 264 | 1.6 | 4.8 | 0.00 | 0.00 | 0.00 | 90 | 1011.5 |
| 20260510081410 | 17 | 236 | 3.2 | 4.8 | 0.00 | 0.00 | 0.00 | 90 | 1011.1 |
| 20260510075909 | 17 | 89 | 0.0 | 1.6 | 0.00 | 0.00 | 0.00 | 90 | 1011.1 |
| 20260510075409 | 17 | 89 | 0.0 | 1.6 | 0.00 | 0.00 | 0.00 | 90 | 1011.1 |
| 20260510074909 | 17 | 89 | 0.0 | 1.6 | 0.00 | 0.00 | 0.00 | 90 | 1011.1 |
| 20260510074409 | 17 | 95 | 0.0 | 1.6 | 0.00 | 0.00 | 0.00 | 89 | 1010.8 |
| 20260510073909 | 17 | 141 | 0.0 | 1.6 | 0.00 | 0.00 | 0.00 | 89 | 1010.8 |
| 20260510073409 | 17 | 255 | 0.0 | 4.8 | 0.00 | 0.00 | 0.00 | 90 | 1010.8 |
| 20260510072909 | 18 | 231 | 3.2 | 4.8 | 0.00 | 0.00 | 0.00 | 89 | 1010.8 |
| 20260510072409 | 18 | 231 | 3.2 | 6.4 | 0.00 | 0.00 | 0.00 | 89 | 1010.8 |
| 20260510071909 | 18 | 231 | 3.2 | 6.4 | 0.00 | 0.00 | 0.00 | 89 | 1010.8 |
| 20260510065409 | 17 | 155 | 1.6 | 3.2 | 0.00 | 0.00 | 0.00 | 91 | 1011.1 |
| 20260510064909 | 17 | 155 | 1.6 | 6.4 | 0.00 | 0.00 | 0.00 | 91 | 1011.1 |
| 20260510064409 | 17 | 155 | 1.6 | 6.4 | 0.00 | 0.00 | 0.00 | 91 | 1011.1 |
| 20260510063909 | 17 | 166 | 4.8 | 6.4 | 0.00 | 0.00 | 0.00 | 91 | 1010.8 |
| 20260510063409 | 17 | 111 | 3.2 | 3.2 | 0.00 | 0.00 | 0.00 | 90 | 1011.1 |
| 20260510062909 | 17 | 111 | 3.2 | 3.2 | 0.00 | 0.00 | 0.00 | 90 | 1010.8 |
| 20260510062409 | 17 | 142 | 1.6 | 3.2 | 0.00 | 0.00 | 0.00 | 89 | 1011.1 |
| 20260510061909 | 17 | 145 | 1.6 | 3.2 | 0.00 | 0.00 | 0.00 | 89 | 1010.8 |
| 20260510061409 | 18 | 139 | 0.0 | 3.2 | 0.00 | 0.00 | 0.00 | 88 | 1010.8 |
| 20260510060909 | 18 | 141 | 0.0 | 3.2 | 0.00 | 0.00 | 0.00 | 90 | 1010.8 |
| 20260510060408 | 18 | 250 | 0.0 | 3.2 | 0.00 | 0.00 | 0.00 | 90 | 1010.8 |
| 20260510054909 | 18 | 186 | 4.8 | 4.8 | 0.00 | 0.00 | 0.00 | 89 | 1010.8 |
| 20260510054409 | 18 | 186 | 4.8 | 6.4 | 0.00 | 0.00 | 0.00 | 89 | 1010.8 |
| 20260510053909 | 18 | 186 | 4.8 | 6.4 | 0.00 | 0.00 | 0.00 | 89 | 1010.8 |
| 20260510053408 | 18 | 180 | 4.8 | 6.4 | 0.00 | 0.00 | 0.00 | 89 | 1010.8 |
| 20260510052909 | 18 | 180 | 4.8 | 8.0 | 0.00 | 0.00 | 0.00 | 89 | 1010.8 |
| 20260510052409 | 18 | 190 | 8.0 | 8.0 | 0.00 | 0.00 | 0.00 | 89 | 1010.8 |
| 20260510051909 | 18 | 180 | 4.8 | 8.0 | 0.00 | 0.00 | 0.00 | 88 | 1011.1 |
| 20260510051409 | 18 | 180 | 4.8 | 8.0 | 0.00 | 0.00 | 0.00 | 88 | 1011.1 |
| 20260510045909 | 18 | 175 | 6.4 | 9.7 | 0.00 | 0.00 | 0.00 | 88 | 1011.1 |
| 20260510045409 | 18 | 175 | 6.4 | 14.5 | 0.00 | 0.00 | 0.00 | 88 | 1010.8 |
| 20260510044909 | 18 | 175 | 6.4 | 14.5 | 0.00 | 0.00 | 0.00 | 88 | 1010.8 |
| 20260510044409 | 18 | 188 | 8.0 | 14.5 | 0.00 | 0.00 | 0.00 | 87 | 1010.8 |
| 20260510043909 | 18 | 188 | 8.0 | 14.5 | 0.00 | 0.00 | 0.00 | 87 | 1010.8 |
| 20260510023909 | 20 | 180 | 8.0 | 8.0 | 0.00 | 0.00 | 0.00 | 77 | 1010.8 |
| 20260510023409 | 20 | 180 | 8.0 | 8.0 | 0.00 | 0.00 | 0.00 | 77 | 1010.8 |
| 20260510022910 | 20 | 180 | 8.0 | 8.0 | 0.00 | 0.00 | 0.00 | 77 | 1010.4 |
| 20260510020909 | 21 | 174 | 9.7 | 9.7 | 0.00 | 0.00 | 0.00 | 74 | 1010.1 |
| 20260510020409 | 21 | 174 | 9.7 | 9.7 | 0.00 | 0.00 | 0.00 | 74 | 1010.1 |
| 20260510005409 | 23 | 182 | 6.4 | 6.4 | 0.00 | 0.00 | 0.00 | 65 | 1008.7 |
| 20260510004909 | 23 | 182 | 6.4 | 9.7 | 0.00 | 0.00 | 0.00 | 65 | 1008.7 |
| 20260510004409 | 23 | 182 | 6.4 | 9.7 | 0.00 | 0.00 | 0.00 | 65 | 1008.3 |
| 20260510003909 | 23 | 207 | 6.4 | 9.7 | 0.00 | 0.00 | 0.00 | 63 | 1008.3 |
| 20260510002909 | 24 | 168 | 0.0 | 8.0 | 0.00 | 0.00 | 0.00 | 58 | 1008.3 |
| 20260510002409 | 24 | 168 | 0.0 | 8.0 | 0.00 | 0.00 | 0.00 | 58 | 1008.3 |
| 20260510001909 | 24 | 168 | 0.0 | 8.0 | 0.00 | 0.00 | 0.00 | 58 | 1008.3 |
| 20260510001409 | 24 | 154 | 1.6 | 6.4 | 0.00 | 0.00 | 0.00 | 58 | 1008.0 |
| 20260509231909 | 25 | 135 | 3.2 | 4.8 | 0.00 | 0.00 | 0.00 | 52 | 1008.3 |
| 20260509231409 | 25 | 135 | 3.2 | 4.8 | 0.00 | 0.00 | 0.00 | 52 | 1008.3 |
| 20260509230909 | 25 | 135 | 3.2 | 4.8 | 0.00 | 0.00 | 0.00 | 52 | 1008.0 |
| 20260509230409 | 25 | 262 | 1.6 | 4.8 | 0.00 | 0.00 | 0.00 | 54 | 1008.0 |
| 20260509225909 | 25 | 262 | 1.6 | 8.0 | 0.00 | 0.00 | 0.00 | 54 | 1007.6 |
| 20260509224909 | 25 | 234 | 4.8 | 8.0 | 0.00 | 0.00 | 0.00 | 54 | 1008.0 |
| 20260509224409 | 25 | 234 | 4.8 | 8.0 | 0.00 | 0.00 | 0.00 | 54 | 1007.6 |
| 20260509223909 | 25 | 127 | 1.6 | 6.4 | 0.00 | 0.00 | 0.00 | 55 | 1007.6 |
| 20260509223409 | 25 | 127 | 1.6 | 6.4 | 0.00 | 0.00 | 0.00 | 55 | 1008.0 |
| 20260509222909 | 25 | 185 | 4.8 | 6.4 | 0.00 | 0.00 | 0.00 | 52 | 1007.6 |
| 20260509222409 | 25 | 185 | 4.8 | 6.4 | 0.00 | 0.00 | 0.00 | 52 | 1008.0 |